SCP
1 2 4 5 5 5 4 3 3 3 3 2 2 2 2 2 2 2 2 3 3 2 2 1 1 1 1 1 1 1 1 0 0 0 0 0 0 0 0 0 0 0 0
2 2 4 5 5 4 4 3 3 3 3 2 2 2 2 2 2 2 2 3 3 2 2 2 1 2 2 1 1 1 1 0 0 0 0 0 0 0 0 0 0 0 0
2 2 3 4 4 4 3 3 4 4 4 3 2 2 2 2 2 2 2 2 3 2 2 2 2 2 2 1 1 1 1 1 1 0 0 0 0 0 0 0 0 0 0
2 2 2 3 3 4 4 4 4 4 4 3 3 2 2 2 2 2 2 2 2 2 2 2 2 2 1 1 1 1 1 1 1 0 0 0 0 0 0 0 0 0 0
2 1 1 2 3 4 4 4 4 4 5 4 3 3 3 3 2 2 2 2 2 2 2 2 2 1 1 1 1 1 1 1 0 0 0 0 0 0 1 1 0 0 0
2 1 1 1 2 3 4 4 4 5 5 5 4 3 3 3 3 3 2 2 2 2 2 2 2 2 1 1 1 1 1 1 0 0 0 0 0 1 1 1 0 0 0
2 2 1 2 2 2 3 4 5 5 5 5 4 3 3 3 3 3 3 3 3 2 2 2 2 2 1 1 1 1 1 0 0 0 0 0 0 1 1 0 0 0 0
2 2 2 2 2 1 3 4 5 4 4 4 4 4 3 3 3 3 3 3 3 3 3 2 2 2 1 1 1 1 1 0 0 0 0 0 0 1 1 0 0 0 0
2 3 3 3 2 1 2 4 5 5 4 4 4 3 3 3 3 3 3 3 3 2 2 3 2 2 2 1 1 1 1 0 0 0 0 0 0 1 1 0 0 0 0
2 2 3 3 2 2 2 3 4 4 4 3 3 3 3 3 3 3 3 3 3 2 2 2 2 2 2 1 1 1 0 0 0 0 0 0 0 1 1 0 0 0 0
2 2 2 2 2 2 1 2 3 4 3 3 3 3 3 3 3 3 2 2 2 2 2 2 3 2 2 1 1 0 0 0 0 0 0 0 1 1 1 1 0 0 0
2 2 1 1 1 1 1 2 2 3 3 2 2 3 3 3 4 4 3 2 2 2 2 3 3 2 2 1 1 0 0 0 0 0 0 0 1 1 1 1 1 0 0
1 2 2 1 1 1 1 1 2 2 2 2 2 2 3 4 4 4 4 3 2 2 2 2 3 2 2 2 1 1 0 0 0 0 0 1 1 1 1 1 1 1 1
1 1 2 1 1 1 1 1 2 2 2 2 2 2 3 4 4 4 4 4 3 2 2 2 2 2 2 2 1 1 1 1 1 0 0 0 1 1 1 1 1 1 1
1 1 2 1 1 1 1 1 1 2 2 2 3 3 3 3 4 4 4 4 4 3 2 2 2 2 2 2 1 1 1 1 1 1 0 0 1 1 1 1 1 1 1
1 1 1 1 1 1 1 1 1 2 2 2 3 3 2 3 3 4 4 4 4 3 2 1 1 1 1 1 1 1 1 1 1 1 1 0 0 1 1 1 1 1 1
0 1 1 1 1 1 1 1 1 2 2 2 3 2 2 2 2 3 3 3 3 2 1 1 0 0 0 1 1 0 0 0 1 1 1 0 0 0 0 1 1 1 1
0 0 0 0 0 0 0 1 1 1 2 2 2 2 2 2 2 2 3 2 2 1 1 0 0 0 0 0 0 0 0 0 0 0 0 0 0 0 0 0 0 1 1
0 0 0 0 0 0 0 0 0 1 1 2 2 2 2 2 2 2 2 2 1 1 1 1 0 0 0 0 0 0 0 0 0 0 0 0 0 0 0 0 0 0 0
0 0 0 0 0 0 0 0 0 1 1 2 2 2 2 2 2 2 2 1 1 1 1 1 1 0 0 0 0 0 0 0 0 0 0 0 0 0 0 0 0 0 0
0 0 0 0 0 0 0 0 0 0 1 1 2 2 2 1 1 2 1 1 1 1 1 1 1 1 0 0 0 0 0 0 0 0 0 0 0 0 0 0 0 0 0
0 0 0 0 0 0 0 0 0 0 1 1 1 1 1 1 1 1 1 1 1 1 0 0 1 1 0 0 0 0 0 0 0 0 0 0 0 0 0 0 0 0 0
0 0 0 0 0 0 0 0 0 0 0 0 0 0 0 0 0 1 1 1 0 0 0 0 0 0 0 0 0 0 0 0 0 0 0 0 0 0 0 0 0 0 0
0 0 0 0 0 0 0 0 0 0 0 0 0 0 0 0 0 0 1 0 0 0 0 0 0 0 0 0 0 0 0 0 0 0 0 0 0 0 0 0 0 0 0
0 0 0 0 0 0 0 0 0 0 0 0 0 0 0 0 0 0 0 0 0 0 0 0 0 0 0 0 0 0 0 0 0 0 0 0 0 0 0 0 0 0 0
0 0 0 0 0 0 0 0 0 0 0 0 0 0 0 0 0 0 0 0 0 0 0 0 0 0 0 0 0 0 0 0 0 0 0 0 0 0 0 0 0 0 0
Wind_Speed
3 5 6 5 5 6 7 7 6 6 6 7 6 6 7 7 8 8 8 8 8 8 8 9 10 10 11 12 12 12 12 12 11 12 12 12 12 12 12 11 11 8 13
4 5 6 6 5 6 6 6 6 6 6 6 6 6 6 6 7 7 7 7 8 8 8 9 10 11 11 11 11 11 11 10 10 9 10 10 11 11 11 11 11 8 12
5 6 6 6 6 6 6 6 5 5 5 6 6 5 5 5 6 6 6 7 7 8 9 10 11 11 11 11 10 10 9 8 7 6 7 5 7 11 11 11 11 11 11
5 6 5 6 6 6 6 6 5 5 5 6 5 5 5 5 5 6 6 6 7 8 9 10 10 10 10 10 9 9 8 6 5 4 4 5 5 10 11 11 11 11 11
5 5 6 7 6 6 6 5 5 5 5 5 5 5 4 5 5 5 5 5 6 7 9 9 10 10 9 9 8 7 6 4 4 3 3 5 5 9 10 10 10 10 11
5 5 6 7 6 5 5 5 5 5 5 5 5 4 4 4 4 5 5 5 6 7 8 9 9 9 8 8 7 6 5 4 3 3 5 5 4 8 10 10 10 10 10
5 5 5 6 6 6 5 4 4 4 5 5 5 5 5 4 5 5 5 5 5 6 7 8 8 8 7 7 6 5 4 5 2 3 4 5 5 9 9 9 9 9 9
5 4 4 5 5 5 5 4 4 4 4 5 5 5 5 4 5 5 5 5 5 5 7 7 7 7 7 6 5 4 4 4 2 4 4 4 6 8 8 8 8 8 8
5 5 4 3 3 4 4 4 4 3 4 4 5 5 5 5 5 5 6 6 5 6 6 6 6 6 6 5 4 3 4 5 3 2 5 3 6 7 7 7 7 7 7
5 4 3 2 2 2 2 3 3 3 4 4 4 4 5 5 5 5 5 6 6 6 6 6 6 5 5 4 3 2 3 3 1 3 3 4 6 6 6 6 6 6 7
4 4 3 2 2 1 1 1 2 2 3 3 3 3 3 2 3 3 4 5 5 5 6 6 5 5 4 3 2 1 2 1 1 2 2 4 5 5 5 5 5 5 6
3 3 3 3 2 2 1 1 0 1 1 1 1 1 1 2 2 3 4 4 5 5 5 5 4 4 3 1 1 1 1 1 1 2 3 5 4 5 4 5 5 5 5
2 2 3 2 3 2 1 0 0 0 1 1 1 1 1 1 2 2 2 2 2 3 2 2 2 1 1 1 1 1 1 1 1 2 3 5 4 4 4 4 4 4 4
2 2 2 3 2 3 2 1 1 1 1 1 1 2 1 1 1 1 1 1 1 1 1 1 1 1 1 1 1 1 1 1 1 2 3 5 4 3 3 3 3 3 3
1 1 2 2 2 2 2 1 1 1 1 1 1 1 2 1 1 1 1 1 1 1 1 1 1 1 1 1 1 1 1 1 1 2 2 4 4 3 2 2 2 2 2
0 0 1 1 2 2 2 2 1 1 1 1 1 1 1 1 1 1 1 1 1 1 1 1 1 1 1 0 1 1 1 1 2 2 2 2 3 3 3 2 2 1 1
1 0 0 1 1 1 2 2 1 0 1 0 1 1 1 1 1 1 1 1 1 1 2 1 1 1 1 1 1 1 1 1 2 2 2 1 1 2 2 2 2 1 1
1 1 1 0 1 1 1 1 1 1 1 0 0 1 1 1 1 1 1 1 1 1 1 2 1 2 1 1 1 1 1 1 1 1 1 1 1 1 1 2 2 2 1
1 1 1 1 0 1 1 1 1 1 0 0 1 1 0 1 1 2 1 1 1 1 1 2 1 1 1 1 1 1 1 1 1 1 1 1 1 1 1 2 2 2 2
1 1 1 1 1 0 0 1 1 0 0 0 1 1 1 1 1 2 2 2 1 1 1 1 2 2 1 1 1 1 1 1 1 1 1 1 1 1 1 2 1 1 2
1 1 1 1 1 0 0 1 1 1 0 0 0 1 1 1 1 2 1 2 1 1 1 1 2 2 1 1 2 1 1 0 1 0 0 1 1 1 1 1 1 1 1
0 0 1 1 1 1 1 1 1 1 1 1 0 0 0 1 1 2 2 1 1 2 2 2 2 1 1 1 1 1 0 1 1 0 1 1 1 1 1 2 2 1 1
0 1 1 1 1 1 0 0 1 0 0 0 0 1 0 1 1 2 2 2 1 2 2 2 2 2 1 1 1 2 2 1 1 1 0 1 1 1 0 1 1 1 1
1 1 1 1 1 1 1 1 2 2 2 2 1 1 1 1 1 2 2 2 2 1 2 2 2 1 2 2 1 1 1 1 1 0 1 1 0 0 1 1 1 1 1
0 0 1 1 1 1 2 2 2 2 2 1 1 1 1 1 1 1 1 2 2 2 2 2 2 2 1 2 1 1 0 0 0 2 2 1 1 1 1 1 1 1 1
1 1 1 0 1 2 2 2 3 2 2 2 1 2 2 1 1 1 1 1 1 1 2 2 2 3 2 2 1 1 1 2 1 1 2 2 2 2 1 1 1 1 1
Wind_Direction
81 108 108 97 98 96 98 100 99 96 99 100 96 97 97 97 95 90 87 85 84 83 86 88 87 86 81 79 77 75 75 72 74 77 78 77 77 76 74 70 70 68 71
84 105 102 91 94 92 97 100 98 95 96 99 100 97 98 98 98 94 90 88 88 89 89 89 88 88 83 80 77 77 75 74 72 76 78 76 79 78 75 71 72 73 72
76 105 108 83 87 88 89 96 101 100 100 99 99 99 97 97 97 94 92 91 91 94 94 92 90 89 85 82 78 77 74 67 67 68 82 82 81 80 79 77 76 75 74
79 97 103 87 84 84 86 90 94 96 100 103 100 99 98 100 98 94 95 96 95 99 99 95 92 88 85 83 78 75 71 58 43 55 83 88 85 85 82 79 79 75 74
68 81 89 81 83 82 83 87 91 94 98 105 104 99 96 99 98 95 93 98 100 101 101 98 95 91 85 83 79 72 63 41 26 42 69 83 82 89 84 81 78 75 73
62 70 84 73 73 78 85 85 82 86 92 96 99 100 98 102 99 95 96 97 99 101 101 98 95 93 88 83 81 71 47 18 17 53 67 77 80 91 88 84 82 78 75
65 63 81 68 67 69 72 82 84 82 87 85 87 92 94 95 95 90 89 90 97 101 101 98 97 96 92 87 81 69 34 0 29 59 71 75 82 92 91 88 86 83 80
66 62 75 67 61 66 69 70 71 81 88 85 86 90 88 90 99 93 88 86 88 95 99 95 97 101 96 90 85 67 26 359 27 69 78 80 85 91 93 90 88 86 83
63 62 61 71 70 62 62 60 60 64 79 84 83 83 83 86 92 93 86 88 89 88 92 91 89 100 101 95 83 59 14 358 5 61 86 84 92 95 95 93 92 90 87
52 54 53 52 58 62 60 57 62 65 80 84 85 86 89 90 88 95 90 90 96 96 89 86 85 96 105 101 81 40 357 346 17 64 75 88 95 100 100 97 95 93 90
39 34 33 34 30 29 58 79 93 89 87 95 96 96 103 106 103 106 103 98 102 102 100 98 95 92 90 94 82 24 350 353 40 67 77 95 104 108 106 104 100 97 95
31 21 15 12 13 10 19 83 179 118 104 96 87 118 126 92 89 87 100 101 103 103 102 107 109 106 90 88 49 2 352 13 34 72 81 102 110 114 115 111 106 100 99
17 23 5 353 357 359 356 43 356 61 68 67 70 52 79 91 99 97 107 103 103 102 106 110 124 136 105 81 72 35 13 18 22 65 82 97 105 111 114 117 111 105 100
12 10 7 353 357 352 357 6 23 46 57 56 56 59 54 76 89 99 110 122 118 111 109 114 125 109 98 85 84 65 36 38 36 59 86 92 94 103 109 123 121 116 113
9 360 360 357 5 1 357 2 40 45 70 80 83 70 66 67 88 91 99 110 107 96 106 124 119 112 107 85 78 98 75 65 63 60 83 88 90 88 96 118 131 134 128
318 338 349 354 10 12 4 2 20 56 72 89 89 73 80 87 92 95 114 109 102 100 90 96 104 103 102 100 108 109 86 84 91 87 88 87 83 83 75 87 103 101 122
205 129 20 340 11 18 7 358 1 43 53 95 110 98 82 77 90 110 106 109 105 114 109 92 81 81 85 77 92 84 69 86 94 92 99 105 103 76 74 69 68 73 71
174 153 139 7 355 5 5 353 350 4 57 92 109 101 91 88 90 101 104 104 96 112 110 105 94 82 70 59 48 56 72 83 93 100 100 109 115 102 82 69 49 38 25
190 178 153 132 351 337 347 344 327 337 346 66 67 84 79 99 107 106 111 100 102 104 110 111 99 92 84 64 45 47 72 89 108 99 106 91 90 98 99 87 64 37 12
160 155 152 150 162 234 8 343 315 304 352 67 109 79 82 107 110 108 115 109 113 113 103 104 111 92 95 91 59 43 32 92 80 105 129 102 91 90 97 96 79 33 11
118 147 152 154 160 159 200 254 263 249 243 278 141 99 102 121 128 119 116 133 131 143 146 133 119 120 103 92 69 39 360 42 111 85 104 103 105 100 88 73 56 60 17
128 146 157 180 174 191 258 247 255 263 234 236 20 76 87 92 123 123 128 145 157 153 140 128 121 117 148 130 122 107 15 347 333 104 75 65 50 69 76 78 67 61 67
324 244 224 209 201 198 298 334 320 68 71 43 270 261 185 157 138 136 138 138 164 159 162 159 156 136 174 212 134 138 149 204 318 330 70 70 73 78 85 88 89 77 75
266 268 225 205 206 203 211 224 222 206 209 228 216 239 233 182 162 146 152 150 160 166 166 171 167 174 166 185 239 278 186 151 158 252 328 1 7 258 233 180 142 120 103
128 298 242 184 212 214 225 235 232 242 225 221 198 212 237 202 169 141 154 156 166 176 176 176 177 178 181 180 188 224 253 288 196 188 236 269 300 285 260 213 178 172 166
35 348 320 214 240 233 230 234 231 241 237 215 213 216 226 221 187 160 159 170 184 189 183 184 183 184 197 197 186 188 189 196 209 197 222 242 253 266 267 232 212 210 180